Regional Weather Roundup
Issued by NWS Sterling, VA

Home | Current Version | Previous Version | Text Only | Print | Product List | Glossary Off
Versions: 1 2 3 4 5 6 7 8 9 10 11 12 13 14 15 16 17 18 19 20 21 22 23 24 25 26 27 28 29 30 31 32 33 34 35 36 37 38 39 40 41 42 43 44 45 46 47 48 49 50

430
ASUS41 KLWX 221110
RWRLWX

REGIONAL WEATHER ROUNDUP
NATIONAL WEATHER SERVICE BALTIMORE MD/WASHINGTON DC
700 AM EDT FRI JUL 22 2016

Note: "FAIR" indicates few or no clouds below 12,000 feet
with no significant weather and/or obstructions to visibility.
 TC=TEMPERATURE CELSIUS

 * =Non NWS site. Station does not report precipitation (e.g. rain,
    snow, etc.), thunder, or fog.

DCZ001-MDZ009-015-VAZ040>042-051-053>054-221200-
WASHINGTON METRO

CITY           SKY/WX    TMP DP  RH WIND       PRES   REMARKS
WASHINGTON NAT CLOUDY    75  71  87 S7        30.04S
DULLES         MOCLDY    69  67  93 S3        30.04F
ANDREWS AFB    CLOUDY    73  69  88 SW7       30.03F
FT BELVOIR     FAIR      69  68  95 SE1       30.04S
QUANTICO       MOCLDY    74  69  85 W6        30.05S
COLLEGE PARK*  FAIR      70  68  94 CALM      30.03F
LEESBURG*      FAIR      70  70 100 CALM      30.05S
MANASSAS*      CLEAR     66  66 100 CALM      30.04F
GAITHERSBURG*  CLOUDY    72  66  83 CALM      30.08F

$$

MDZ006>007-011-014-221200-
BALTIMORE METRO

CITY           SKY/WX    TMP DP  RH WIND       PRES   REMARKS
BWI AIRPORT    CLOUDY    72  67  84 SW3       30.02F
MD SCIENCE CTR   N/A     76  67  73 MISG      30.02F
MARTIN STATE   PTSUNNY   75  72  88 CALM      30.03F
ANNAPOLIS      CLOUDY    75  69  81 W5        30.02F
FORT MEADE*    CLOUDY    64  63  94 CALM      30.06F

$$

MDZ012-015-019>023-221200-
MARYLAND EASTERN SHORE

CITY           SKY/WX    TMP DP  RH WIND       PRES   REMARKS
OCEAN CITY     MOSUNNY   78  71  79 SW7       30.07S
SALISBURY      MOSUNNY   72  70  93 S3        30.07R
BAY BRIDGE AP* CLOUDY    77  70  78 S7        30.03F
CAMBRIDGE*     MOSUNNY   72  70  94 CALM      30.05S
EASTON*        SUNNY     75  75 100 S3        30.08S

$$

MDZ017>025-221200-
SOUTHERN MARYLAND

CITY           SKY/WX    TMP DP  RH WIND       PRES   REMARKS
PATUXENT RIVER CLOUDY    75  69  81 SW7       30.06R
ST INIGOES     PTCLDY    78  71  79 W6        30.06R
LEONARDTOWN*   PTCLDY    73  68  83 SW6       30.08R

$$

MDZ003>005-221200-
NORTH CENTRAL MARYLAND

CITY           SKY/WX    TMP DP  RH WIND       PRES   REMARKS
FREDERICK*     CLEAR     68  68 100 CALM      30.05F
HAGERSTOWN APT PTCLDY    72  64  76 S5        30.04S

$$

MDZ501>502-221200-
WESTERN MARYLAND

CITY           SKY/WX    TMP DP  RH WIND       PRES   REMARKS
OAKLAND*       CLOUDY    63  55  77 SW7       30.16S
CUMBERLAND*    CLOUDY    64  64 100 CALM      30.10S

$$

VAZ025>031-221200-
SHENANDOAH VALLEY

CITY           SKY/WX    TMP DP  RH WIND       PRES   REMARKS
WINCHESTER*    FAIR      70  63  78 SW5       30.05S
FRONT ROYAL*   FAIR      66  64  94 S6        30.05F
LURAY*         FAIR     N/A N/A N/A CALM      30.07F FOG
NEW MARKET*    FAIR     N/A N/A N/A CALM      30.07F
STAUNTON*      FAIR      62  62  97 CALM      30.11F FOG
WAYNESBORO*    FAIR      64  63  94 CALM      30.11S

$$

WVZ021-048>050-054>055-221200-
EASTERN WEST VIRGINIA PANHANDLE

CITY           SKY/WX    TMP DP  RH WIND       PRES   REMARKS
MARTINSBURG    FAIR      66  63  90 CALM      30.04S
PETERSBURG*    FAIR      61  60  97 CALM      30.09S

$$

VAZ036>039-050-221200-
CENTRAL FOOTHILLS

CITY           SKY/WX    TMP DP  RH WIND       PRES   REMARKS
CHARLOTTESVILL FAIR      71  67  87 S3        30.06S
CULPEPER*      MOCLDY    67  67 100 CALM      30.05F FOG
ORANGE*          N/A     68  68 100 CALM      30.07F FOG
GORDONSVILLE*  FAIR      67  67 100 CALM      30.05F FOG
WARRENTON*     FAIR      67  64  87 CALM      30.03F HAZE

$$

VAZ055>057-221200-
NORTH AND CENTRAL PIEDMONT

CITY           SKY/WX    TMP DP  RH WIND       PRES   REMARKS
FREDERICKSBRG* FAIR      72  72 100 CALM      30.04S
STAFFORD*      FAIR      67  65  95 CALM      30.08F FOG

$$

NCZ024-NYZ072-PAZ021-071-VAZ022-071-221200-
OTHER REGIONAL OBSERVATIONS

CITY           SKY/WX    TMP DP  RH WIND       PRES   REMARKS
NEW YORK CITY  CLOUDY    75  67  76 W8        30.00F
PHILADELPHIA   CLOUDY    74  69  85 S9        30.01F
PITTSBURGH     CLOUDY    74  63  68 SW5       30.03R
ROANOKE        FAIR      70  68  93 E3        30.12S
RICHMOND       CLOUDY    72  69  90 CALM      30.07R
RALEIGH        MOCLDY    73  71  93 SW3       30.11R

$$

ANZ530>537-221200-
MARINE OBSERVATIONS

STATION/POSITION TIME  TEMP    WIND        PRES
                       AIR SEA DIR/SP/G
                 (UTC) (F)     (DEG/KT/KT) (MB)
THOMAS PT LIGHT  1100   76 81  250/ 14/ 16 1018.1F
BALT KEY BRIDGE  1048   74      CALM  /  3 1016.6F
COVE POINT       1048   76     260/ 11/ 16 1018.1R
LEWISETTA        1042   76 84  250/  7/  9 1017.5R
SOLOMONS ISLAND  1048          250/  5/  7   N/A
PINEY POINT      1048          300/  3/  4   N/A

$$





USA.gov is the U.S. government's official web portal to all federal, state and local government web resources and services.